TITAN 3C TRANSTAGE DEB, 3386

Orbit data source: Space-Track

TITAN 3C TRANSTAGE DEB, 3386 is space debris in LEO originally from a launch on Fri, 15 Oct 1965 UTC launched from the Air Force Eastern Test Range (AFETR). Debris objects in space refer to the collection of defunct objects orbiting the Earth. Examples of debris include non-operational satellites, rocket bodies, and fragments generated from explosions, collisions, or faulty payload assembly.

Loading next visibility...
Identifier
3386, 1965-082MY
Orbit
LEO
Country
Flag of USUS
Related business
Manufacturer
Unknown
Mission
Spacecraft
Bus & Motor
Unknown
Mass
Unknown
Launch date (UTC)
1965-10-15 (60 years ago)
Launch vehicle
Unknown
Launch site
Air Force Eastern Test Range (AFETR)
Object type
Payload
Rocket body
Debris
Shape & HBR
Unknown shape, 0.1 m
Radar Cross Section
Small (<0.1 m²)

Expand to show TLE details & history
Last TLE update: 8 hours ago

TLE from 8 hours ago
0 TITAN 3C TRANSTAGE DEB
1 03386U 65082MY  25349.83102427  .00002817  00000-0  23512-3 0  9995
2 03386  32.3706 242.6725 0006534 303.7808  56.2229 14.97126736218315
Epoch: 2025-12-15T19:56Z
TLE epoch observation values (Epoch: 2025-12-15T19:56:40.496Z)
Latitude
-0.00003°
Longitude
-141.22022°
Altitude
571.908 km
Speed
7.579 km/s
True Right ascension
16h 10m 41s
True Declination
0° 00' 00"
Sunlit
Object was in daylight at epoch
Visualization orbit readout
Latitude
Unknown
Longitude
Unknown
Altitude
Unknown
Speed
Unknown
Apparent Right ascension
Unknown
Apparent Declination
Unknown
Sunlit
N/A
Visualization observer readout
Local Sidereal Time
02:11:20
Azimuth
Unknown
Elevation
Unknown
Doppler factor
Unknown
Orbital elements
Apogee altitude
583.941 km
Perigee altitude
574.849 km
Semi-major axis
6,957.532 km
Eccentricity
0.00065
Inclination
32.3706°
RAAN
242.6725°
Arg. of periapsis
303.7808°
True anomaly
56.28516°
Mean anomaly
56.2229°
Eccentric anomaly
56.25403°
Mean motion
3.7399 °/min
Orbital period
96.26 mins
BSTAR
0.00023512

Documentation

Showing up to 5 results
|